Weather in Curitiba

Brazil     25˚27′34″S   49˚14′54″W
temp.,
°C
wind,
m/s
gust,
m/s
humid.,
%
clouds,
%
prec.,
mm/h
press.,
hPa
HPBL,
m
17 january, sun
sun1700:00+22˚nnw3980100 0.3 1010614
03:00+21˚nnw41083100 0.3 1009602
06:00+20˚nw398799 0.0 1009595
09:00+24˚nw496999 0.0 1010872
12:00+27˚nw4754100 0.0 10081496
15:00+27˚nw586388 3.7 10061255
18:00+22˚nw598184 4.1 1007729
21:00+21˚nw4108292 5.4 1009588
18 january, mon
mon1800:00+21˚nw41086100 0.4 1009511
03:00+20˚nnw3988100 1.4 1008591
06:00+20˚nw3108799 0.1 1008620
09:00+22˚nw4983100 0.2 1010603
12:00+22˚nw257999 1.1 1010611
15:00+24˚nw127399 6.3 1010552
18:00+21˚ene1492100 22.9 1010330
21:00+19˚ese4892100 74.3 1013469
19 january, tue
tue1900:00+18˚se3895100 28.7 1014472
03:00+18˚ese3790100 38.6 1013469
06:00+17˚e4891100 6.3 1014495
09:00+18˚e3892100 14.1 1016471
12:00+18˚ese3792100 9.6 1016437
15:00+18˚ese3891100 16.0 1015485
18:00+18˚ese4992100 2.3 1015510
21:00+18˚ese4993100 10.1 1016505
20 january, wed
wed2000:00+18˚ese3894100 4.1 1016449
03:00+18˚se2595100 4.8 1014321
06:00+18˚e2693100 1.0 1015334
09:00+19˚e2489100 1.6 1016385
12:00+22˚e3477100 0.3 1015634
15:00+23˚ese4575100 1.9 1014697
18:00+21˚ese4780100 0.4 1015632
21:00+19˚ese4888100 0.5 1016514
21 january, thu
thu2100:00+19˚ese4988100 0.0 1017501
03:00+19˚se2690100 0.0 1016424
06:00+18˚se2589100 0.4 1016335
09:00+19˚ese3791100 2.2 1017379
12:00+21˚se3579100 0.4 1017599
15:00+21˚sse3580100 1.2 1016633
18:00+20˚se3887100 3.0 1016584
21:00+19˚se3988100 3.6 1018584